星链-6030 (STARLINK-6030 )

导读 | 豆包AI

STARLINK-6030是美国太空探索技术公司(SpaceX)于2023年3月29日发射的星链低轨互联网卫星,是Starlink星座组网的重要组成部分。作为Starlink计划的一员,它运行在近地轨道,为全球提供高速低延迟卫星宽带服务,目前已随整个星座系统服役,助力星链实现全球网络覆盖。

基本信息
目录编号:
56107
目录名称:
STARLINK-6030
国际标识:
2023-046Q
轨道中心:
EARTH
卫星名称:
星链-6030
卫星全名:
星链-6030 (STARLINK-6030 )
卫星状态:
在轨 (已飞行1128 天)
发射日期:
2023-03-29 UTC
国别 :
美国 (US)
星等 :
--
轨道信息
数据来源 国际轨道数据 AOE轨道数据
星历时间 2026-04-30T03:04:27+0800
13小时前
查看轨道信息
2026-04-27T07:00:00+0800
3天前
查看轨道信息
半长轴 6861.19km 6861.204km
偏心率 0.0001208 0.0001566
轨道倾角 43.002° 43.002°
近地点辐角 268.906° 276.135°
升交点赤经 233.245° 249.268°
平近点角 91.166° 307.313°
近地点 482.224km 481.992km
远地点 483.882km 484.142km
周期 94.267分钟 94.267分钟
每日圈数 15.275788 15.275743
详细信息
固有亮度:
5
最大亮度:
2.5
卫星平台:
Starlink v1.5
覆盖范围:
全球
运营商:
太空探索技术公司
运营商所在国:
美国
制造商(研发单位):
太空探索技术公司
制造商所在国:
美国
使用方式:
暂无
卫星简介
星链(Starlink)计划是由太空探索技术公司(SpaceX)提出的一个巨型低轨卫星互联网星座项目,计划在2019年至2024年间在太空搭建由约1.2万颗卫星组成的“星链”网络,其中1584颗将部署在地球上空550千米处的近地轨道,并从2020年开始工作。该卫星仍在工作。
2D轨道图
3D轨道图
轨道高度分析图
轨道倾角分析图
轨道综合分析图
查看轨道综合分析图